This is the latest recevied weather packets stored in our database for station/object K7FLA. If no packets are shown the sender has not sent any weather packets the latest 10 day(s).
| Time | Temp. | Humidity | Pressure | Rain* | Wind** | Luminosity | Snow |
|---|---|---|---|---|---|---|---|
| 1788387839 | 30.56° C | 19% | 1096 hPa | 0 mm | - | 511 W/m² | - |
| 1788387539 | 30.56° C | 18% | 1096 hPa | 0 mm | - | 525 W/m² | - |
| 1788387239 | 30.56° C | 18% | 1096.2 hPa | 0 mm | - | 539 W/m² | - |
| 1788386934 | 31.11° C | 18% | 1096.3 hPa | 0 mm | - | 554 W/m² | - |
| 1788386634 | 31.11° C | 19% | 1096.4 hPa | 0 mm | - | 567 W/m² | - |
| 1788386330 | 31.11° C | 20% | 1096.3 hPa | 0 mm | - | 582 W/m² | - |
| 1788386030 | 30.56° C | 19% | 1096.4 hPa | 0 mm | - | 593 W/m² | - |
| 1788385726 | 30.56° C | 19% | 1096.4 hPa | 0 mm | - | 604 W/m² | - |
| 1788385425 | 31.11° C | 18% | 1096.6 hPa | 0 mm | - | 620 W/m² | - |
| 1788385120 | 31.11° C | 17% | 1096.6 hPa | 0 mm | - | 628 W/m² | - |
| 1788384816 | 31.11° C | 17% | 1096.6 hPa | 0 mm | - | 642 W/m² | - |
| 1788384513 | 31.11° C | 16% | 1096.6 hPa | 0 mm | - | 653 W/m² | - |
| 1788384211 | 31.11° C | 17% | 1096.7 hPa | 0 mm | - | 663 W/m² | - |
| 1788383907 | 31.11° C | 18% | 1096.6 hPa | 0 mm | - | 676 W/m² | - |
| 1788383602 | 31.11° C | 16% | 1096.7 hPa | 0 mm | - | 685 W/m² | - |
| 1788383298 | 31.11° C | 17% | 1096.8 hPa | 0 mm | - | 695 W/m² | - |
| 1788382997 | 31.11° C | 16% | 1097 hPa | 0 mm | - | 705 W/m² | - |
| 1788382695 | 31.67° C | 17% | 1096.8 hPa | 0 mm | - | 713 W/m² | - |
| 1788382396 | 31.11° C | 18% | 1096.9 hPa | 0 mm | - | 721 W/m² | - |
| 1788382091 | 31.11° C | 17% | 1096.8 hPa | 0 mm | - | 729 W/m² | - |
| 1788381786 | 31.11° C | 17% | 1097 hPa | 0 mm | - | 737 W/m² | - |
| 1788381481 | 30.56° C | 18% | 1097.1 hPa | 0 mm | - | 744 W/m² | - |
| 1788381176 | 30.56° C | 18% | 1097.1 hPa | 0 mm | - | 749 W/m² | - |
| 1788380871 | 30.56° C | 16% | 1096.8 hPa | 0 mm | - | 755 W/m² | - |
| 1788380568 | 30.56° C | 16% | 1097.3 hPa | 0 mm | - | 761 W/m² | - |
* Rain latest hour (hover to see other rain measurements)
** Current wind speed in m/s (hover to see current wind gust speed)